Stations météo

Publicité
Cambridge (NIAB), Grande-Bretagne (99123): Température de l'air & dewpoint: 19.11.2020 22:00:00 - 25.11.2020 22:00:00 (GMT)Cambridge (NIAB), Grande-Bretagne (99123): Quantités de précipitations: 19.11.2020 22:00:00 - 25.11.2020 22:00:00 (GMT)
Date & Time tt [°C] td [°C] rr [mm]
25.11.2020 22:00:00 - - -
25.11.2020 21:00:00 4,7 4,1 0,0
25.11.2020 20:00:00 6,0 4,9 0,0
25.11.2020 19:00:00 7,0 5,8 0,0
25.11.2020 18:00:00 7,1 6,0 0,0
25.11.2020 17:00:00 7,6 6,4 0,0
25.11.2020 16:00:00 8,1 7,0 0,0
25.11.2020 15:00:00 8,3 7,7 0,4
25.11.2020 14:00:00 9,5 8,7 0,0
25.11.2020 13:00:00 12,2 10,9 0,0
25.11.2020 12:00:00 11,7 10,6 0,0
25.11.2020 11:00:00 11,7 10,2 0,0
25.11.2020 10:00:00 10,9 9,6 0,0
25.11.2020 09:00:00 9,5 8,5 0,0
25.11.2020 08:00:00 8,6 7,8 0,0
25.11.2020 07:00:00 8,7 7,5 0,0
25.11.2020 06:00:00 8,8 7,6 0,0
25.11.2020 05:00:00 8,6 7,4 0,0
25.11.2020 04:00:00 8,3 7,4 0,0
25.11.2020 03:00:00 7,9 6,9 0,0
25.11.2020 02:00:00 7,8 6,8 0,0
25.11.2020 01:00:00 7,8 6,8 0,0
25.11.2020 00:00:00 7,6 6,8 0,0
24.11.2020 23:00:00 7,4 6,6 0,0
24.11.2020 22:00:00 7,6 6,6 0,0
24.11.2020 21:00:00 8,2 6,8 0,0
24.11.2020 20:00:00 8,7 7,0 0,0
24.11.2020 19:00:00 9,1 6,9 0,0
24.11.2020 18:00:00 9,2 6,7 0,0
24.11.2020 17:00:00 9,7 6,6 0,0
24.11.2020 16:00:00 10,2 6,4 0,0
24.11.2020 15:00:00 10,8 6,9 0,0
24.11.2020 14:00:00 10,7 6,9 0,0
24.11.2020 13:00:00 11,1 7,3 0,0
24.11.2020 12:00:00 11,4 7,9 0,0
24.11.2020 11:00:00 10,8 8,0 0,0
24.11.2020 10:00:00 10,5 8,2 0,0
24.11.2020 09:00:00 9,9 8,0 0,0
24.11.2020 08:00:00 10,0 8,0 0,0
24.11.2020 07:00:00 10,3 8,2 0,0
24.11.2020 06:00:00 10,1 8,1 0,0
24.11.2020 05:00:00 9,2 8,1 0,0
24.11.2020 04:00:00 9,8 8,3 0,0
24.11.2020 03:00:00 8,4 7,2 0,0
24.11.2020 02:00:00 9,5 7,9 0,0
24.11.2020 01:00:00 9,3 7,8 0,0
24.11.2020 00:00:00 8,6 7,6 0,0
23.11.2020 23:00:00 7,4 6,5 0,0
23.11.2020 22:00:00 7,1 6,5 0,0
23.11.2020 21:00:00 6,5 5,9 0,0
23.11.2020 20:00:00 6,5 5,6 0,0
23.11.2020 19:00:00 6,6 5,5 0,0
23.11.2020 18:00:00 6,9 5,5 0,0
23.11.2020 17:00:00 7,0 5,2 0,0
23.11.2020 16:00:00 7,5 5,6 0,0
23.11.2020 15:00:00 8,9 5,6 0,0
23.11.2020 14:00:00 8,6 5,1 0,0
23.11.2020 13:00:00 9,3 5,3 0,0
23.11.2020 12:00:00 8,0 4,7 0,0
23.11.2020 11:00:00 6,6 4,5 0,0
23.11.2020 10:00:00 4,0 3,2 0,2
23.11.2020 09:00:00 1,4 1,4 0,0
23.11.2020 08:00:00 0,6 0,5 0,0
23.11.2020 07:00:00 1,1 1,0 0,0
23.11.2020 06:00:00 0,4 0,4 0,0
23.11.2020 05:00:00 0,7 0,6 0,0
23.11.2020 04:00:00 0,3 0,1 0,0
23.11.2020 03:00:00 0,5 0,1 0,0
23.11.2020 02:00:00 1,5 1,0 0,0
23.11.2020 01:00:00 2,2 1,4 0,0
23.11.2020 00:00:00 3,9 2,2 0,0
22.11.2020 23:00:00 4,3 2,5 0,0
22.11.2020 22:00:00 4,0 2,6 0,0
22.11.2020 21:00:00 4,4 2,6 0,0
22.11.2020 20:00:00 5,5 3,4 0,0
22.11.2020 19:00:00 5,3 3,8 0,0
22.11.2020 18:00:00 5,5 3,9 0,0
22.11.2020 17:00:00 5,6 3,4 0,0
22.11.2020 16:00:00 8,0 4,2 0,0
22.11.2020 15:00:00 9,7 4,8 0,0
22.11.2020 14:00:00 10,2 5,3 0,0
22.11.2020 13:00:00 10,3 5,1 0,0
22.11.2020 12:00:00 9,2 5,5 0,0
22.11.2020 11:00:00 9,0 6,3 0,0
22.11.2020 10:00:00 8,8 6,5 0,0
22.11.2020 09:00:00 6,9 5,8 0,0
22.11.2020 08:00:00 6,1 5,3 0,2
22.11.2020 07:00:00 6,6 6,1 0,0
22.11.2020 06:00:00 6,9 6,1 0,0
22.11.2020 05:00:00 7,8 6,6 0,0
22.11.2020 04:00:00 8,8 6,7 0,0
22.11.2020 03:00:00 9,6 7,4 0,0
22.11.2020 02:00:00 9,8 7,6 0,0
22.11.2020 01:00:00 10,3 9,7 0,4
22.11.2020 00:00:00 11,1 9,0 0,0
21.11.2020 23:00:00 11,1 8,8 0,0
21.11.2020 22:00:00 11,1 8,8 0,0
21.11.2020 21:00:00 11,2 8,7 0,0
21.11.2020 20:00:00 11,1 8,5 0,0
21.11.2020 19:00:00 11,1 8,4 0,0
21.11.2020 18:00:00 10,9 8,1 0,0
21.11.2020 17:00:00 10,7 7,9 0,0
21.11.2020 16:00:00 11,0 7,8 0,0
21.11.2020 15:00:00 12,1 8,1 0,0
21.11.2020 14:00:00 12,0 8,3 0,0
21.11.2020 13:00:00 12,0 8,0 0,0
21.11.2020 12:00:00 11,6 7,7 0,0
21.11.2020 11:00:00 11,2 7,3 0,0
21.11.2020 10:00:00 10,8 7,5 0,0
21.11.2020 09:00:00 10,2 7,7 0,0
21.11.2020 08:00:00 10,0 7,8 0,0
21.11.2020 07:00:00 10,3 7,7 0,0
21.11.2020 06:00:00 9,8 7,7 0,0
21.11.2020 05:00:00 9,8 7,7 0,0
21.11.2020 04:00:00 9,7 7,5 0,0
21.11.2020 03:00:00 9,9 7,7 0,0
21.11.2020 02:00:00 10,2 8,0 0,0
21.11.2020 01:00:00 10,3 9,0 0,2
21.11.2020 00:00:00 10,0 9,3 0,0
20.11.2020 23:00:00 9,5 8,8 0,0
20.11.2020 22:00:00 9,7 8,8 0,0
20.11.2020 21:00:00 9,6 8,8 0,0
20.11.2020 20:00:00 9,3 8,7 0,0
20.11.2020 19:00:00 8,9 8,6 0,0
20.11.2020 18:00:00 8,6 8,2 0,6
20.11.2020 17:00:00 8,3 7,5 0,2
20.11.2020 16:00:00 8,1 7,1 0,2
20.11.2020 15:00:00 8,3 6,9 0,0
20.11.2020 14:00:00 7,5 6,2 0,2
20.11.2020 13:00:00 7,0 5,2 0,0
20.11.2020 12:00:00 6,7 4,2 0,0
20.11.2020 11:00:00 5,9 3,9 0,0
20.11.2020 10:00:00 4,1 2,6 0,0
20.11.2020 09:00:00 2,8 1,9 0,0
20.11.2020 08:00:00 1,3 1,0 0,0
20.11.2020 07:00:00 0,8 0,3 0,0
20.11.2020 06:00:00 0,6 0,2 0,0
20.11.2020 05:00:00 1,1 0,1 0,0
20.11.2020 04:00:00 1,5 1,0 0,0
20.11.2020 03:00:00 0,9 0,1 0,0
20.11.2020 02:00:00 2,3 1,1 0,0
20.11.2020 01:00:00 2,4 1,2 0,0
20.11.2020 00:00:00 1,6 0,3 0,0
19.11.2020 23:00:00 2,0 0,1 0,0
19.11.2020 22:00:00 2,0 -0,9 0,0

tt = Température de l'air
td = dewpoint
rr = Quantités de précipitations

stations d'obs. à proximité